星链-34536 (STARLINK-34536)

导读

STARLINK-34536是美国SpaceX公司星链星座的一员,于2025年7月2日发射入轨。星链计划旨在构建全球卫星互联网,该卫星承担着为全球偏远地区、海洋空域等提供低延迟宽带互联网接入的任务,助力全球连通性,进一步强化了美国在低轨卫星星座领域的部署规模与技术优势。

Basic Information
目录编号:
64748
目录名称:
STARLINK-34536
国际标识:
2025-144AA
轨道中心:
EARTH
卫星名称:
星链-34536
卫星全名:
星链-34536 (STARLINK-34536)
卫星状态:
在轨 (已飞行429 天)
发射日期:
2025-07-02 UTC
国别 :
美国 (US)
星等 :
--
Orbit Information
数据来源 国际轨道数据
星历时间: 2026-09-03T11:35:12+0800
23小时前
查看轨道信息
半长轴: 6840.822km
偏心率: 0.0000561
轨道倾角: 53.160°
近地点辐角 63.694°
升交点赤经 76.619°
平近点角 296.413°
近地点: 462.301km
远地点: 463.069km
周期: 93.847分钟
每日圈数: 15.344063
Detailed Information
固有亮度:
5
最大亮度:
2.5
卫星平台:
Starlink V1.0
覆盖范围:
全球
运营商:
太空探索技术公司
运营商所在国:
美国
制造商(研发单位):
太空探索技术公司
制造商所在国:
美国
使用方式:
暂无
Satellite Introduction
Starlink 计划是 SpaceX 推出的全球卫星互联网项目,通过发射低轨道卫星,为全球尤其是偏远地区提供高速、低延迟的互联网服务。自 2019 年起,Starlink 已部署数千颗卫星,旨在缩小全球数字鸿沟,推动互联网普及。该项目还为军事、航空等行业提供通信支持,带来广泛经济效益。
2D Orbit Map
3D Orbit Map
Orbit Altitude Analysis Chart
Orbit Inclination Analysis Chart
Orbit Comprehensive Analysis Chart
View Comprehensive Chart
Conjunction Data List
Event ID Objects TCA Miss Dist (km) Collision Risk Probability Collision Risk Index (CRI) Action
CDM_260904-103205-703106-474822
2026-09-04T
10:32:18+0000
0.640 km
远距离
8.343809E-5 中风险 0.73
CDM_260903-201605-209506-474821
2026-09-03T
20:16:35+0000
0.804 km
远距离
3.557616E-5 中风险 0.66
CDM_260905-075206-474806-570121
2026-09-05T
07:52:58+0000
0.894 km
远距离
3.442485E-5 中风险 0.66
CDM_260904-024405-362906-474821
2026-09-04T
02:44:37+0000
0.961 km
远距离
1.872591E-5 中风险 0.6
CDM_260904-194606-195806-474821
2026-09-04T
19:46:10+0000
0.936 km
远距离
1.575631E-5 中风险 0.59
CDM_260904-125004-474406-474821
2026-09-04T
12:50:50+0000
1.410 km
极远距离
3.216525E-6 低风险 0.45
CDM_260829-132406-474806-566322
2026-08-29T
13:24:42+0000
2.209 km
极远距离
2.24795E-6 低风险 0.42
CDM_260830-043406-462706-474821
OBJECT C (64627)
2026-08-30T
04:34:00+0000
2.146 km
极远距离
2.223679E-6 低风险 0.42
CDM_260903-211605-362906-474821
2026-09-03T
21:16:21+0000
1.973 km
极远距离
1.886098E-6 低风险 0.41
CDM_260904-014405-209506-474821
2026-09-04T
01:44:51+0000
2.055 km
极远距离
1.779837E-6 低风险 0.4